TimeAKDT,TemperatureF,Dew PointF,Humidity,Sea Level PressureIn,VisibilityMPH,Wind Direction,Wind SpeedMPH,Gust SpeedMPH,PrecipitationIn,Events,Conditions,WindDirDegrees,DateUTC
12:16 AM,44.6,39.2,81,30.50,10.0,NNW,6.9,-,N/A,,Overcast,340,2012-10-04 08:16:00
12:36 AM,44.6,39.2,81,30.50,10.0,NNW,8.1,-,N/A,,Overcast,340,2012-10-04 08:36:00
12:56 AM,42.8,39.2,87,30.50,9.0,NNW,5.8,-,N/A,,Overcast,330,2012-10-04 08:56:00
1:16 AM,42.8,39.2,87,30.50,10.0,NNW,4.6,-,N/A,,Overcast,330,2012-10-04 09:16:00
1:36 AM,44.6,39.2,81,30.50,10.0,NNW,6.9,-,N/A,,Overcast,340,2012-10-04 09:36:00
1:56 AM,42.8,39.2,87,30.50,9.0,NNW,6.9,-,N/A,,Overcast,340,2012-10-04 09:56:00
2:16 AM,42.8,39.2,87,30.50,10.0,North,5.8,-,N/A,,Overcast,360,2012-10-04 10:16:00
2:36 AM,42.8,39.2,87,30.50,10.0,NNE,4.6,-,N/A,,Overcast,20,2012-10-04 10:36:00
2:56 AM,42.8,39.2,87,30.50,10.0,North,3.5,-,N/A,,Overcast,360,2012-10-04 10:56:00
3:16 AM,42.8,39.2,87,30.50,10.0,NNW,3.5,-,N/A,,Overcast,330,2012-10-04 11:16:00
3:36 AM,42.8,39.2,87,30.50,10.0,Calm,Calm,-,N/A,,Overcast,0,2012-10-04 11:36:00
3:56 AM,44.6,39.2,81,30.49,10.0,Calm,Calm,-,N/A,,Overcast,0,2012-10-04 11:56:00
4:16 AM,44.6,39.2,81,30.49,10.0,NNW,4.6,-,N/A,,Overcast,340,2012-10-04 12:16:00
4:36 AM,44.6,39.2,81,30.49,9.0,North,4.6,-,N/A,,Overcast,350,2012-10-04 12:36:00
4:56 AM,44.6,39.2,81,30.49,10.0,NNW,5.8,-,N/A,,Overcast,330,2012-10-04 12:56:00
5:16 AM,44.6,39.2,81,30.49,10.0,NNW,5.8,-,N/A,,Overcast,330,2012-10-04 13:16:00
5:36 AM,44.6,39.2,81,30.48,8.0,NNW,5.8,-,N/A,,Overcast,340,2012-10-04 13:36:00
5:56 AM,44.6,39.2,81,30.48,5.0,NNW,5.8,-,N/A,,Overcast,340,2012-10-04 13:56:00
6:16 AM,44.6,39.2,81,30.49,10.0,NNW,6.9,-,N/A,,Overcast,330,2012-10-04 14:16:00
6:36 AM,44.6,39.2,81,30.48,10.0,NNW,6.9,-,N/A,,Overcast,340,2012-10-04 14:36:00
6:56 AM,44.6,39.2,81,30.48,10.0,NW,4.6,-,N/A,,Overcast,320,2012-10-04 14:56:00
7:16 AM,44.6,39.2,81,30.48,10.0,NNW,6.9,-,N/A,,Overcast,340,2012-10-04 15:16:00
7:36 AM,44.6,39.2,81,30.48,10.0,NNW,5.8,-,N/A,,Overcast,340,2012-10-04 15:36:00
7:56 AM,44.6,39.2,81,30.48,5.0,NNW,5.8,-,N/A,,Overcast,340,2012-10-04 15:56:00
8:16 AM,44.6,39.2,81,30.48,10.0,NNW,3.5,-,N/A,,Overcast,330,2012-10-04 16:16:00
8:36 AM,44.6,39.2,81,30.48,8.0,NNW,3.5,-,N/A,,Overcast,330,2012-10-04 16:36:00
8:56 AM,44.6,39.2,81,30.48,10.0,NNW,4.6,-,N/A,,Overcast,330,2012-10-04 16:56:00
9:16 AM,44.6,41.0,87,30.48,4.0,NNW,4.6,-,N/A,,Overcast,330,2012-10-04 17:16:00
9:36 AM,44.6,41.0,87,30.49,3.0,NW,3.5,-,N/A,,Overcast,320,2012-10-04 17:36:00
9:56 AM,44.6,41.0,87,30.49,2.0,Calm,Calm,-,N/A,,Overcast,0,2012-10-04 17:56:00
10:16 AM,44.6,41.0,87,30.49,1.8,Calm,Calm,-,N/A,,Overcast,0,2012-10-04 18:16:00
10:36 AM,44.6,41.0,87,30.50,2.5,NW,4.6,-,N/A,,Overcast,320,2012-10-04 18:36:00
10:56 AM,44.6,41.0,87,30.50,2.0,NNW,4.6,-,N/A,,Overcast,330,2012-10-04 18:56:00
11:16 AM,46.4,42.8,87,30.49,3.0,Calm,Calm,-,N/A,,Overcast,0,2012-10-04 19:16:00
11:36 AM,46.4,42.8,87,30.50,3.0,NW,3.5,-,N/A,,Overcast,320,2012-10-04 19:36:00
11:56 AM,46.4,42.8,87,30.50,2.5,NW,3.5,-,N/A,,Overcast,320,2012-10-04 19:56:00
12:16 PM,46.4,42.8,87,30.50,3.0,Calm,Calm,-,N/A,,Overcast,0,2012-10-04 20:16:00
12:56 PM,46.4,42.8,87,30.50,3.0,Calm,Calm,-,N/A,,Overcast,0,2012-10-04 20:56:00
1:16 PM,46.4,42.8,87,30.50,4.0,NW,3.5,-,N/A,,Overcast,310,2012-10-04 21:16:00
1:36 PM,46.4,42.8,87,30.51,2.0,NW,4.6,-,N/A,,Overcast,320,2012-10-04 21:36:00
1:56 PM,46.4,42.8,87,30.50,2.0,NNW,4.6,-,N/A,,Overcast,330,2012-10-04 21:56:00
2:16 PM,46.4,42.8,87,30.50,3.0,Calm,Calm,-,N/A,,Overcast,0,2012-10-04 22:16:00
2:36 PM,46.4,42.8,87,30.50,2.5,NW,4.6,-,N/A,,Overcast,320,2012-10-04 22:36:00
2:56 PM,46.4,42.8,87,30.49,3.0,Calm,Calm,-,N/A,,Overcast,0,2012-10-04 22:56:00
3:16 PM,46.4,42.8,87,30.49,2.0,NNW,5.8,-,N/A,,Overcast,340,2012-10-04 23:16:00
3:36 PM,46.4,42.8,87,30.49,2.0,NW,4.6,-,N/A,,Overcast,320,2012-10-04 23:36:00
3:56 PM,46.4,42.8,87,30.49,1.8,NNW,3.5,-,N/A,,Overcast,330,2012-10-04 23:56:00
4:16 PM,46.4,42.8,87,30.49,2.5,NNW,4.6,-,N/A,,Overcast,330,2012-10-05 00:16:00
4:36 PM,46.4,42.8,87,30.50,2.0,NNW,4.6,-,N/A,,Overcast,330,2012-10-05 00:36:00
5:16 PM,46.4,42.8,87,30.49,2.0,NW,4.6,-,N/A,,Overcast,320,2012-10-05 01:16:00
5:36 PM,46.4,42.8,87,30.49,2.5,Calm,Calm,-,N/A,,Overcast,0,2012-10-05 01:36:00
5:56 PM,46.4,42.8,87,30.49,2.0,NW,4.6,-,N/A,,Overcast,320,2012-10-05 01:56:00
6:16 PM,46.4,42.8,87,30.49,2.5,NNW,4.6,-,N/A,,Overcast,340,2012-10-05 02:16:00
6:36 PM,46.4,42.8,87,30.49,3.0,NW,3.5,-,N/A,,Overcast,320,2012-10-05 02:36:00
6:56 PM,46.4,42.8,87,30.49,7.0,Calm,Calm,-,N/A,,Overcast,0,2012-10-05 02:56:00
7:16 PM,46.4,42.8,87,30.49,5.0,NW,3.5,-,N/A,,Overcast,320,2012-10-05 03:16:00
7:36 PM,46.4,42.8,87,30.49,4.0,Calm,Calm,-,N/A,,Overcast,0,2012-10-05 03:36:00
7:56 PM,46.4,42.8,87,30.49,3.0,NW,3.5,-,N/A,,Overcast,310,2012-10-05 03:56:00
8:16 PM,46.4,42.8,87,30.50,3.0,Calm,Calm,-,N/A,,Overcast,0,2012-10-05 04:16:00
8:36 PM,46.4,42.8,87,30.49,3.0,Calm,Calm,-,N/A,,Overcast,0,2012-10-05 04:36:00
9:16 PM,46.4,42.8,87,30.49,3.0,NNW,3.5,-,N/A,,Overcast,340,2012-10-05 05:16:00
9:36 PM,46.4,42.8,87,30.49,3.0,NNW,4.6,-,N/A,,Overcast,340,2012-10-05 05:36:00
9:56 PM,46.4,42.8,87,30.49,3.0,NNW,3.5,-,N/A,,Overcast,330,2012-10-05 05:56:00
10:16 PM,46.4,42.8,87,30.50,2.5,NW,3.5,-,N/A,,Overcast,320,2012-10-05 06:16:00
10:36 PM,46.4,42.8,87,30.50,3.0,Calm,Calm,-,N/A,,Overcast,0,2012-10-05 06:36:00
10:56 PM,46.4,42.8,87,30.50,4.0,Calm,Calm,-,N/A,,Overcast,0,2012-10-05 06:56:00
11:16 PM,46.4,42.8,87,30.50,5.0,NNW,3.5,-,N/A,,Overcast,330,2012-10-05 07:16:00
11:36 PM,46.4,42.8,87,30.51,5.0,NW,5.8,-,N/A,,Overcast,320,2012-10-05 07:36:00
11:56 PM,46.4,42.8,87,30.52,5.0,NW,4.6,-,N/A,,Overcast,320,2012-10-05 07:56:00